Weather History for PANT - March, 2013

Change the Weather History Date:

Saturday, March 9, 2013

  Actual Average Record
Temperature  
Mean Temperature 41 °F 39 °F  
Max Temperature 43 °F 44 °F 59 °F (1965)
Min Temperature 39 °F 34 °F 16 °F (1951)
Degree Days  
Heating Degree Days 24 26  
Month to date heating degree days 241 239  
Since 1 July heating degree days 4767 4777  
Cooling Degree Days 0    
Month to date cooling degree days 0  
Year to date cooling degree days 0  
Moisture  
Dew Point 36 °F    
Average Humidity 0    
Maximum Humidity 0    
Minimum Humidity 0    
Precipitation  
Precipitation 0.71 in 0.24 in 1.56 in (1978)
Month to date precipitation 1.71 2.23  
Year to date precipitation 23.27 20.27  
Snow  
Snow 0.00 in 0.20 in 3.50 in (1960)
Month to date snowfall T 2.4  
Since 1 July snowfall 11.9 28.9  
Snow Depth 0.00 in    
Sea Level Pressure  
Sea Level Pressure 30.17 in    
Wind  
Wind Speed 10 mph (SSE)    
Max Wind Speed 28 mph    
Max Gust Speed 40 mph    
Visibility 9 miles    
Events Rain    
T = Trace of Precipitation, MM = Missing Value Source: NWS Daily Summary

Daily Weather History Graph

Daily Weather History Graph

Search for Another Location

Airport or City:

Trip Planner

Search our weather history database for the weather conditions in past years. The results will help you decide how hot, cold, wet, or windy it might be!

Date:

Astronomy

Mar. 09, 2013 Rise Set
Actual Time 6:15 AM AKST 5:39 PM AKST
Civil Twilight 5:39 AM AKST 6:15 PM AKST
Nautical Twilight 4:57 AM AKST 6:57 PM AKST
Astronomical Twilight 4:14 AM AKST 7:40 PM AKST
Moon 4:59 AM AKST (3/9) 3:37 PM AKST (3/9)
Length of Visible Light 12h 35m
Length of Day
11h 23m
Waning Crescent, 5% of the Moon is Illuminated
Mar 9
Waning Crescent
Mar 11
New
Mar 19
First Quarter
Mar 27
Full
Apr 2
Last Quarter

Hourly Weather History & Observations

Time (AKST) Temp. Windchill Dew Point Humidity Pressure Visibility Wind Dir Wind Speed Gust Speed Precip Events Conditions
12:01 AM 41.0 °F 37.1 °F 35.6 °F 81% 30.18 in 10.0 mi ESE 5.8 mph - 0.00 in Rain Light Rain
12:08 AM 41.0 °F 37.1 °F 35.6 °F 81% 30.18 in 10.0 mi ESE 5.8 mph - 0.00 in   Overcast
12:53 AM 41.0 °F 35.2 °F 35.1 °F 79% 30.19 in 10.0 mi SE 9.2 mph - 0.00 in   Overcast
1:37 AM 41.0 °F 36.4 °F 35.6 °F 81% 30.18 in 10.0 mi SE 6.9 mph - 0.00 in   Overcast
1:53 AM 41.0 °F 36.4 °F 36.0 °F 82% 30.19 in 10.0 mi SE 6.9 mph - 0.00 in   Overcast
2:09 AM 41.0 °F 36.4 °F 35.6 °F 81% 30.18 in 10.0 mi SE 6.9 mph - 0.00 in Rain Light Rain
3:53 AM 39.9 °F 35.1 °F 37.0 °F 89% 30.18 in 10.0 mi SE 6.9 mph - 0.02 in Rain Light Rain
4:03 AM 39.2 °F 32.5 °F 37.4 °F 93% 30.17 in 9.0 mi SE 10.4 mph - 0.00 in Rain Light Rain
4:17 AM 39.2 °F 34.2 °F 37.4 °F 93% 30.17 in 10.0 mi ESE 6.9 mph - 0.01 in Rain Light Rain
4:28 AM 39.2 °F 34.2 °F 37.4 °F 93% 30.16 in 10.0 mi ESE 6.9 mph - 0.01 in   Overcast
4:53 AM 39.9 °F 33.4 °F 37.0 °F 89% 30.16 in 10.0 mi ESE 10.4 mph - 0.01 in   Overcast
5:42 AM 39.2 °F 32.0 °F 37.4 °F 93% 30.15 in 10.0 mi ESE 11.5 mph 20.7 mph 0.00 in   Overcast
5:53 AM 39.9 °F 33.4 °F 37.0 °F 89% 30.16 in 10.0 mi ESE 10.4 mph - 0.00 in Rain Light Rain
6:38 AM 39.2 °F 31.2 °F 37.4 °F 93% 30.14 in 10.0 mi ESE 13.8 mph 18.4 mph 0.01 in Rain Light Rain
6:45 AM 39.2 °F 32.0 °F 37.4 °F 93% 30.14 in 9.0 mi SE 11.5 mph - 0.01 in Rain Light Rain
6:53 AM 39.9 °F 33.4 °F 37.0 °F 89% 30.15 in 10.0 mi SE 10.4 mph - 0.01 in Rain Light Rain
7:09 AM 39.2 °F 31.6 °F 37.4 °F 93% 30.14 in 10.0 mi SE 12.7 mph - 0.00 in Rain Light Rain
7:24 AM 39.2 °F 30.8 °F 37.4 °F 93% 30.14 in 10.0 mi SE 15.0 mph 20.7 mph 0.00 in Rain Light Rain
7:43 AM 39.2 °F 31.2 °F 37.4 °F 93% 30.13 in 10.0 mi SE 13.8 mph 20.7 mph 0.01 in Rain Light Rain
7:53 AM 39.9 °F 31.8 °F 37.0 °F 89% 30.14 in 10.0 mi SE 15.0 mph 25.3 mph 0.01 in Rain Light Rain
8:02 AM 41.0 °F 33.9 °F 37.4 °F 87% 30.13 in 8.0 mi SE 12.7 mph - 0.01 in Rain Light Rain
8:53 AM 41.0 °F 33.1 °F 37.9 °F 89% 30.14 in 6.0 mi SSE 15.0 mph 23.0 mph 0.06 in Rain Rain
9:23 AM 39.2 °F 31.2 °F 37.4 °F 93% 30.13 in 4.0 mi SSE 13.8 mph 28.8 mph 0.05 in Rain Rain
9:53 AM 41.0 °F 32.5 °F 37.9 °F 89% 30.13 in 4.0 mi SSE 17.3 mph 28.8 mph 0.11 in Rain Rain
10:53 AM 39.9 °F 31.4 °F 37.9 °F 93% 30.12 in 7.0 mi SE 16.1 mph 28.8 mph 0.10 in Rain Light Rain
11:16 AM 41.0 °F 33.1 °F 37.4 °F 87% 30.11 in 7.0 mi SSE 15.0 mph 26.5 mph 0.03 in Rain Light Rain
11:53 AM 41.0 °F 32.5 °F 37.9 °F 89% 30.11 in 7.0 mi SSE 17.3 mph 33.4 mph 0.09 in Rain Light Rain
12:53 PM 41.0 °F 30.9 °F 37.9 °F 89% 30.09 in 3.0 mi SSE 24.2 mph 40.3 mph 0.12 in Rain Rain
1:03 PM 41.0 °F 31.9 °F 37.4 °F 87% 30.07 in 4.0 mi SSE 19.6 mph 34.5 mph 0.04 in Rain Rain
1:25 PM 41.0 °F 31.1 °F 37.4 °F 87% 30.07 in 5.0 mi SSE 23.0 mph 35.7 mph 0.08 in Rain Light Rain
1:53 PM 42.1 °F 32.6 °F 39.0 °F 89% 30.06 in 4.0 mi SSE 23.0 mph 40.3 mph 0.13 in Rain Rain
2:48 PM 42.8 °F 35.8 °F 37.4 °F 81% 30.10 in 10.0 mi SW 13.8 mph 27.6 mph 0.05 in   Overcast
2:53 PM 42.1 °F 35.7 °F 37.0 °F 82% 30.11 in 10.0 mi SW 11.5 mph 27.6 mph 0.05 in   Overcast
3:10 PM 42.8 °F 37.0 °F 35.6 °F 76% 30.12 in 10.0 mi SW 10.4 mph 24.2 mph N/A   Overcast
3:28 PM 42.8 °F 35.8 °F 35.6 °F 76% 30.12 in 10.0 mi SSW 13.8 mph 20.7 mph N/A   Overcast
3:53 PM 41.0 °F 35.8 °F 37.0 °F 86% 30.15 in 10.0 mi SSW 8.1 mph 17.3 mph 0.00 in Rain Light Rain
4:10 PM 42.8 °F 37.0 °F 35.6 °F 76% 30.16 in 10.0 mi WSW 10.4 mph 18.4 mph 0.00 in   Mostly Cloudy
4:53 PM 41.0 °F 35.8 °F 32.0 °F 70% 30.19 in 10.0 mi SW 8.1 mph 17.3 mph 0.00 in   Mostly Cloudy
5:53 PM 39.0 °F 34.8 °F 34.0 °F 82% 30.24 in 10.0 mi Variable 5.8 mph - N/A   Overcast
6:53 PM 37.9 °F 33.5 °F 33.1 °F 83% 30.27 in 10.0 mi Variable 5.8 mph - N/A   Clear
7:53 PM 37.0 °F 33.3 °F 32.0 °F 82% 30.29 in 10.0 mi SW 4.6 mph - N/A   Clear
8:53 PM 39.0 °F 33.4 °F 32.0 °F 76% 30.32 in 10.0 mi WSW 8.1 mph - N/A   Scattered Clouds
9:53 PM 36.0 °F - 33.1 °F 89% 30.35 in 10.0 mi Calm Calm - 0.01 in   Partly Cloudy
10:53 PM 35.1 °F - 33.1 °F 92% 30.36 in 10.0 mi Calm Calm - N/A   Overcast
11:53 PM 35.1 °F 32.2 °F 32.0 °F 89% 30.38 in 10.0 mi Variable 3.5 mph - 0.01 in   Mostly Cloudy